This is the latest recevied weather packets stored in our database for station/object S57PNX-8. If no packets are shown the sender has not sent any weather packets the latest 10 day(s).
| Time | Temp. | Humidity | Pressure | Rain* | Wind** | Luminosity | Snow |
|---|---|---|---|---|---|---|---|
| 1777927151 | 13.33° C | 47% | 1022.5 hPa | - | - | - | - |
| 1777926248 | 13.33° C | 47% | 1022.4 hPa | - | - | - | - |
| 1777925349 | 13.89° C | 47% | 1022.4 hPa | - | - | - | - |
| 1777924451 | 13.89° C | 47% | 1022.4 hPa | - | - | - | - |
| 1777923608 | 14.44° C | 48% | 1022.4 hPa | - | - | - | - |
| 1777923552 | 14.44° C | 48% | 1022.4 hPa | - | - | - | - |
| 1777922649 | 14.44° C | 48% | 1022.3 hPa | - | - | - | - |
| 1777921750 | 14.44° C | 48% | 1022.3 hPa | - | - | - | - |
| 1777920849 | 15° C | 49% | 1022.2 hPa | - | - | - | - |
| 1777919945 | 15° C | 49% | 1022.1 hPa | - | - | - | - |
| 1777919046 | 15.56° C | 49% | 1022.1 hPa | - | - | - | - |
| 1777918143 | 16.11° C | 49% | 1022.1 hPa | - | - | - | - |
| 1777917244 | 16.11° C | 49% | 1021.9 hPa | - | - | - | - |
| 1777916344 | 16.11° C | 48% | 1022 hPa | - | - | - | - |
| 1777915444 | 16.67° C | 47% | 1022 hPa | - | - | - | - |
| 1777914540 | 17.22° C | 46% | 1022 hPa | - | - | - | - |
| 1777913641 | 17.78° C | 44% | 1022 hPa | - | - | - | - |
| 1777912742 | 17.78° C | 43% | 1022 hPa | - | - | - | - |
| 1777911843 | 18.89° C | 41% | 1022 hPa | - | - | - | - |
| 1777910045 | 20° C | 39% | 1022 hPa | - | - | - | - |
| 1777909146 | 20.56° C | 39% | 1022.2 hPa | - | - | - | - |
| 1777908248 | 21.11° C | 40% | 1022.3 hPa | - | - | - | - |
| 1777907350 | 19.44° C | 43% | 1022.3 hPa | - | - | - | - |
| 1777906442 | 18.89° C | 44% | 1022.4 hPa | - | - | - | - |
| 1777905543 | 18.89° C | 43% | 1022.4 hPa | - | - | - | - |
* Rain since midnight (hover to see other rain measurements)
** Current wind speed in m/s (hover to see current wind gust speed)